Tracking 35275 objects as of 9-Sep-2026
HD Live streaming from Space Station
objects crossing your sky now

EXPLORER 29 (GEOS 1)

Track EXPLORER 29 (GEOS 1) now!
10-day predictions
EXPLORER 29 (GEOS 1) is classified as:


NORAD ID: 1726
Int'l Code: 1965-089A
Launch date: November 6, 1965
Source: United States (US)
Launch site: AIR FORCE EASTERN TEST RANGE (AFETR)
Your satellite tracking list
Your tracking list is empty




NASA's NSSDC Master Catalog

Two Line Element Set (TLE):
1 01726U 65089A   26252.22222984 -.00000109  00000-0 -22181-3 0  9991
2 01726  59.3834 200.1775 0711082 276.1009 234.8144 11.97078985659726
Source of the keplerian elements: AFSPC